Previsão horária em Aalen

Hoje, 30 Outubro, Sexta-feira

Tempo Temperatura Precipitação Vento Pressão Humidade
00:00 +8°C° 0.3 mm 5 m/s 725 mmHg 94%
01:00 +10°C° 0 mm 4 m/s 725 mmHg 93%
02:00 +9°C° 0.1 mm 5 m/s 725 mmHg 92%
03:00 +9°C° 0.1 mm 5 m/s 724 mmHg 92%
04:00 +9°C° 0.1 mm 5 m/s 724 mmHg 91%
05:00 +9°C° 0 mm 5 m/s 725 mmHg 91%
06:00 +9°C° 0 mm 5 m/s 725 mmHg 91%
07:00 +9°C° 0 mm 5 m/s 725 mmHg 90%
08:00 +10°C° 0 mm 5 m/s 725 mmHg 89%
09:00 +10°C° 0 mm 5 m/s 725 mmHg 88%
10:00 +11°C° 0 mm 6 m/s 726 mmHg 87%
11:00 +11°C° 0 mm 6 m/s 726 mmHg 84%
12:00 +11°C° 0 mm 6 m/s 726 mmHg 82%
13:00 +13°C° 0 mm 6 m/s 726 mmHg 79%
14:00 +13°C° 0 mm 5 m/s 726 mmHg 81%
15:00 +12°C° 0 mm 4 m/s 726 mmHg 82%
16:00 +12°C° 0 mm 3 m/s 726 mmHg 83%
17:00 +12°C° 0 mm 3 m/s 726 mmHg 85%
18:00 +11°C° 0 mm 3 m/s 727 mmHg 88%
19:00 +10°C° 0 mm 3 m/s 727 mmHg 90%
20:00 +10°C° 0 mm 3 m/s 727 mmHg 91%
21:00 +10°C° 0 mm 3 m/s 727 mmHg 91%
22:00 +10°C° 0 mm 2 m/s 728 mmHg 91%
23:00 +9°C° 0 mm 2 m/s 728 mmHg 92%

Amanhã, 31 Outubro, Sábado

Tempo Temperatura Precipitação Vento Pressão Humidade
00:00 +9°C° 0 mm 2 m/s 727 mmHg 93%
01:00 +8°C° 0 mm 2 m/s 727 mmHg 94%
02:00 +8°C° 0 mm 2 m/s 727 mmHg 94%
03:00 +9°C° 0 mm 1 m/s 727 mmHg 94%
04:00 +8°C° 0 mm 1 m/s 726 mmHg 94%
05:00 +8°C° 0 mm 1 m/s 726 mmHg 94%
06:00 +8°C° 0 mm 1 m/s 726 mmHg 94%
07:00 +8°C° 0 mm 1 m/s 726 mmHg 94%
08:00 +9°C° 0 mm 1 m/s 726 mmHg 91%
09:00 +10°C° 0 mm 1 m/s 726 mmHg 88%
10:00 +10°C° 0 mm 2 m/s 726 mmHg 85%
11:00 +12°C° 0 mm 2 m/s 725 mmHg 82%
12:00 +13°C° 0 mm 2 m/s 725 mmHg 79%
13:00 +14°C° 0 mm 2 m/s 724 mmHg 76%
14:00 +14°C° 0 mm 2 m/s 724 mmHg 79%
15:00 +14°C° 0 mm 2 m/s 724 mmHg 81%
16:00 +13°C° 0 mm 2 m/s 723 mmHg 84%
17:00 +12°C° 0 mm 2 m/s 723 mmHg 87%
18:00 +10°C° 0 mm 2 m/s 723 mmHg 90%
19:00 +9°C° 0 mm 2 m/s 723 mmHg 93%
20:00 +9°C° 0 mm 2 m/s 723 mmHg 92%
21:00 +8°C° 0 mm 2 m/s 723 mmHg 90%
22:00 +8°C° 0 mm 2 m/s 723 mmHg 88%
23:00 +8°C° 0 mm 2 m/s 723 mmHg 86%

Depois de amanhã, 1 Novembro, Domingo

Tempo Temperatura Precipitação Vento Pressão Humidade
00:00 +8°C° 0 mm 2 m/s 723 mmHg 83%
01:00 +8°C° 0 mm 2 m/s 723 mmHg 81%
02:00 +8°C° 0 mm 2 m/s 723 mmHg 80%
03:00 +8°C° 0 mm 2 m/s 722 mmHg 79%
04:00 +8°C° 0 mm 2 m/s 722 mmHg 78%
05:00 +9°C° 0 mm 2 m/s 722 mmHg 77%
06:00 +9°C° 0 mm 2 m/s 722 mmHg 76%
07:00 +10°C° 0 mm 2 m/s 722 mmHg 75%
08:00 +10°C° 0.3 mm 3 m/s 722 mmHg 79%
09:00 +10°C° 0.3 mm 3 m/s 722 mmHg 83%
10:00 +11°C° 0.3 mm 3 m/s 722 mmHg 87%
11:00 +11°C° 0.9 mm 3 m/s 722 mmHg 89%
12:00 +11°C° 0.9 mm 4 m/s 722 mmHg 91%
13:00 +11°C° 0.9 mm 4 m/s 721 mmHg 93%
14:00 +11°C° 0.1 mm 4 m/s 721 mmHg 93%
15:00 +12°C° 0.1 mm 4 m/s 721 mmHg 92%
16:00 +12°C° 0.1 mm 4 m/s 721 mmHg 91%
17:00 +12°C° 0.2 mm 4 m/s 721 mmHg 91%
18:00 +12°C° 0.2 mm 4 m/s 721 mmHg 91%
19:00 +13°C° 0.2 mm 4 m/s 721 mmHg 91%
20:00 +13°C° 0.2 mm 5 m/s 721 mmHg 91%
21:00 +13°C° 0.2 mm 5 m/s 721 mmHg 91%
22:00 +13°C° 0.2 mm 5 m/s 721 mmHg 90%
23:00 +13°C° 0 mm 4 m/s 721 mmHg 91%

2 Novembro, Segunda-feira

Tempo Temperatura Precipitação Vento Pressão Humidade
00:00 +13°C° 0 mm 4 m/s 721 mmHg 91%
01:00 +12°C° 0 mm 4 m/s 721 mmHg 91%
02:00 +12°C° 0 mm 4 m/s 721 mmHg 91%
03:00 +12°C° 0 mm 3 m/s 721 mmHg 91%
04:00 +12°C° 0 mm 3 m/s 721 mmHg 91%
05:00 +12°C° 0 mm 3 m/s 720 mmHg 91%
06:00 +12°C° 0 mm 3 m/s 720 mmHg 91%
07:00 +12°C° 0 mm 3 m/s 720 mmHg 91%
08:00 +13°C° 0 mm 3 m/s 720 mmHg 89%
09:00 +14°C° 0 mm 4 m/s 720 mmHg 87%
10:00 +15°C° 0 mm 4 m/s 721 mmHg 85%
11:00 +17°C° 0 mm 4 m/s 721 mmHg 83%
12:00 +18°C° 0 mm 4 m/s 720 mmHg 82%
13:00 +18°C° 0 mm 4 m/s 720 mmHg 81%
14:00 +18°C° 0 mm 4 m/s 720 mmHg 82%
15:00 +17°C° 0 mm 3 m/s 720 mmHg 84%
16:00 +17°C° 0 mm 3 m/s 720 mmHg 85%
17:00 +17°C° 0 mm 3 m/s 720 mmHg 85%
18:00 +16°C° 0 mm 3 m/s 720 mmHg 85%
19:00 +16°C° 0 mm 3 m/s 720 mmHg 85%
20:00 +16°C° 0 mm 3 m/s 720 mmHg 85%
21:00 +14°C° 0 mm 3 m/s 720 mmHg 85%
22:00 +14°C° 0 mm 3 m/s 721 mmHg 85%
23:00 +14°C° 0.1 mm 3 m/s 721 mmHg 86%

3 Novembro, Terça-feira

Tempo Temperatura Precipitação Vento Pressão Humidade
00:00 +14°C° 0.1 mm 4 m/s 721 mmHg 87%
01:00 +13°C° 0.1 mm 4 m/s 722 mmHg 88%
02:00 +12°C° 0.1 mm 4 m/s 722 mmHg 87%
03:00 +12°C° 0.1 mm 4 m/s 723 mmHg 87%
04:00 +11°C° 0.1 mm 4 m/s 723 mmHg 86%
05:00 +10°C° 0 mm 4 m/s 724 mmHg 86%
06:00 +8°C° 0 mm 4 m/s 724 mmHg 86%
07:00 +7°C° 0 mm 4 m/s 725 mmHg 86%
08:00 +7°C° 0 mm 4 m/s 726 mmHg 83%
09:00 +7°C° 0 mm 4 m/s 726 mmHg 80%
10:00 +7°C° 0 mm 4 m/s 727 mmHg 77%
11:00 +8°C° 0 mm 3 m/s 727 mmHg 74%
12:00 +9°C° 0 mm 3 m/s 727 mmHg 70%
13:00 +9°C° 0 mm 2 m/s 727 mmHg 66%
14:00 +9°C° 0 mm 2 m/s 727 mmHg 68%
15:00 +10°C° 0 mm 1 m/s 727 mmHg 70%
16:00 +10°C° 0 mm 1 m/s 726 mmHg 72%
17:00 +9°C° 0 mm 1 m/s 726 mmHg 76%
18:00 +8°C° 0 mm 1 m/s 726 mmHg 79%
19:00 +7°C° 0 mm 0 m/s 726 mmHg 83%
20:00 +7°C° 0.2 mm 0 m/s 726 mmHg 84%
21:00 +8°C° 0.2 mm 1 m/s 726 mmHg 85%
22:00 +7°C° 0.2 mm 1 m/s 726 mmHg 86%
23:00 +7°C° 0.4 mm 1 m/s 726 mmHg 88%

4 Novembro, Quarta-feira

Tempo Temperatura Precipitação Vento Pressão Humidade
00:00 +7°C° 0.4 mm 1 m/s 726 mmHg 89%
01:00 +6°C° 0.4 mm 1 m/s 726 mmHg 91%
02:00 +6°C° 0.2 mm 1 m/s 726 mmHg 91%
03:00 +6°C° 0.2 mm 1 m/s 726 mmHg 91%
04:00 +6°C° 0.2 mm 1 m/s 727 mmHg 92%
05:00 +6°C° 0.1 mm 1 m/s 727 mmHg 92%
06:00 +6°C° 0.1 mm 1 m/s 727 mmHg 92%
07:00 +5°C° 0.1 mm 2 m/s 728 mmHg 92%
08:00 +6°C° 0 mm 2 m/s 728 mmHg 89%
09:00 +6°C° 0 mm 2 m/s 728 mmHg 86%
10:00 +6°C° 0 mm 2 m/s 728 mmHg 83%
11:00 +8°C° 0 mm 1 m/s 728 mmHg 80%
12:00 +8°C° 0 mm 1 m/s 728 mmHg 76%
13:00 +9°C° 0 mm 1 m/s 728 mmHg 72%
14:00 +7°C° 0 mm 2 m/s 728 mmHg 75%
15:00 +7°C° 0 mm 2 m/s 728 mmHg 77%
16:00 +7°C° 0 mm 2 m/s 728 mmHg 80%
17:00 +6°C° 0 mm 2 m/s 728 mmHg 84%
18:00 +4°C° 0 mm 2 m/s 728 mmHg 88%
19:00 +3°C° 0 mm 2 m/s 728 mmHg 92%
20:00 +3°C° 0 mm 2 m/s 728 mmHg 93%
21:00 +3°C° 0 mm 2 m/s 728 mmHg 93%
22:00 +3°C° 0 mm 2 m/s 729 mmHg 94%
23:00 +3°C° 0 mm 2 m/s 729 mmHg 94%
Mostrar mais